Regional Weather Roundup
Issued by NWS

Home | Current Version | Previous Version | Graphics & Text | Print | Product List | Glossary On
Versions: 1 2 3 4 5 6 7 8 9 10 11 12 13 14 15 16 17 18 19 20 21 22 23 24 25 26 27 28 29 30 31 32 33 34 35 36 37 38 39 40 41 42 43 44 45 46 47 48 49 50
111
ASUS43 KIND 270059
RWRIN

WEATHER ROUNDUP FOR INDIANA
NATIONAL WEATHER SERVICE INDIANAPOLIS IN
900 PM EDT THU MAY 26 2016

NOTE: "FAIR" INDICATES FEW OR NO CLOUDS BELOW 12,000 FEET WITH NO
SIGNIFICANT WEATHER AND/OR OBSTRUCTIONS TO VISIBILITY.

* - STATION DOES NOT REPORT WEATHER SUCH AS PRECIPITATION OR FOG.

+ - STATION NOT QUALITY CONTROLLED BY THE NATIONAL WEATHER SERVICE.
    USE DATA WITH CAUTION...ESPECIALLY DEWPOINT AND RELATIVE
    HUMIDITY OBSERVATIONS.

INZ001>003-010>013-019-020-270200-
NORTHWEST INDIANA

CITY           SKY/WX    TMP DP  RH WIND       PRES   REMARKS
GARY /AIRPORT/ MOCLDY    82  70  65 VRB3      29.87R

$$

LMZ046-743>745-270200-
SOUTHERN LAKE MICHIGAN

STATION/POSITION TIME  TEMP    WIND        PRES    WAVE
                       AIR SEA DIR/SP/G            HT
                 (UTC) (F)     (DEG/KT/KT) (MB)    (FT)
BURNS HARBOR     0000   82     200/  8/ 11 1011.2R
MICHIGAN CITY    0000   76     200/  3/  3   N/A
5NW MICH CITY    0000   66 62   60/  2/  4   N/A     1

$$

INZ004-005-014>016-021>024-270200-
NORTH CENTRAL INDIANA

CITY           SKY/WX    TMP DP  RH WIND       PRES   REMARKS
ELKHART        CLEAR     77  66  69 SW5       29.91R
GOSHEN         PTCLDY    75  59  57 SW5       29.91R
SOUTH BEND     PTCLDY    77  60  55 SW8       29.91R

$$

INZ006>009-017-018-025>027-270200-
NORTHEAST INDIANA

CITY           SKY/WX    TMP DP  RH WIND       PRES   REMARKS
FORT WAYNE     MOCLDY    76  62  62 SW12      29.93R

$$

INZ028-029-035-036-043>045-051>053-270200-
WEST CENTRAL INDIANA

CITY           SKY/WX    TMP DP  RH WIND       PRES   REMARKS
LAFAYETTE      PTCLDY    73  62  68 S5        29.92R
TERRE HAUTE    CLOUDY    71  63  75 S13       29.94R

$$

INZ030>032-037>040-046>048-054>057-064-065-270200-
CENTRAL INDIANA

CITY           SKY/WX    TMP DP  RH WIND       PRES   REMARKS
COLUMBUS       PTCLDY    70  66  88 S13       29.98R
INDIANAPOLIS   MOCLDY    72  64  76 S12       29.95R
-EAGLE CREEK   PTCLDY    73  64  73 VRB7      29.96R
KOKOMO *+      CLOUDY    73  61  64 SW12      29.94R
SHELBYVILLE    MOCLDY    72  64  76 S9        29.97R

$$

INZ033-034-041-042-049-050-058-059-270200-
EAST CENTRAL INDIANA

CITY           SKY/WX    TMP DP  RH WIND       PRES   REMARKS
MUNCIE         PTCLDY    76  62  62 SW7       29.95R

$$

INZ060-061-067>069-081>083-085>088-270200-
SOUTHWEST INDIANA

CITY           SKY/WX    TMP DP  RH WIND       PRES   REMARKS
EVANSVILLE     MOCLDY    68  63  84 SE5       29.97R
HUNTINGBURG *+ CLOUDY    70  63  78 SE5       29.98R

$$

INZ062-063-066-070>080-084-089>092-270200-
SOUTH CENTRAL AND SOUTHEAST INDIANA

CITY           SKY/WX    TMP DP  RH WIND       PRES   REMARKS
BLOOMINGTON    CLOUDY    70  63  78 S6        29.97R
MADISON *+     CLOUDY    66  63  88 S5        30.01R
SEYMOUR +      CLOUDY    70  64  83 CALM      29.98R

$$





USA.gov is the U.S. government's official web portal to all federal, state and local government web resources and services.